User: anonymous   Login
Location: Unspecified
(0.0000°N, 0.0000°E)
Time: 07:10:02
(UTC+00:00)
Language:

TIGRISAT - Orbit

View from above orbital plane
View from above orbital plane
View from above satellite
View from above satellite

Ground track
Ground track

The orbit data is extracted from the following two-line orbital elements,

1 40043U 14033AK  20299.85832600 +.00000194 +00000-0 +35982-4 0  9991
2 40043 097.6929 149.7118 0058654 297.8873 061.6403 14.74421858341268
Epoch (UTC): 25 October 2020 20:35:59
Eccentricity: 0.0058654
inclination: 97.6929°
perigee height: 606 km
apogee height: 688 km
right ascension of ascending node: 149.7118°
argument of perigee: 297.8873°
revolutions per day: 14.74421858
mean anomaly at epoch: 61.6403°
orbit number at epoch: 34126

The dashed part of the orbit path shows where the satellite is in the earth's shadow,  

DLR